Hourly Data Report for October 04, 2017

All times are specified in Local Standard Time (LST). Add 1 hour to adjust for Daylight Saving Time where and when it is observed.

PARRSBORO
NOVA SCOTIA

45°24'48.000" N
64°20'49.000" W
30.90 m
8204402
71493
APR

Download Data

Hourly Data (October 2017)
Hourly Data Report for October 4, 2017
Temp Definition
°C
Dew Point Temp Definition
°C
Rel Hum Definition
%
Wind Dir Definition
10's deg

Wind Spd Definition
km/h
Visibility Definition
km
Stn Press Definition
kPa
Hmdx Definition


Wind Chill Definition


Weather Definition


TIME
00:00 10.9 8.7 87 22 4   102.60     LegendNANA
01:00 11.3 9.1 87 23 7   102.52     LegendNANA
02:00 11.8 9.2 84 26 13   102.45     LegendNANA
03:00 11.6 9.1 84 25 10   102.39     LegendNANA
04:00 12.0 9.4 84 25 11   102.33     LegendNANA
05:00 11.9 9.5 85 25 12   102.25     LegendNANA
06:00 12.3 9.6 84 25 15   102.20     LegendNANA
07:00 12.9 10.2 83 26 19   102.11     LegendNANA
08:00 13.3 10.6 83 25 20   102.08     LegendNANA
09:00 13.6 10.9 84 25 18   102.05     LegendNANA
10:00 14.0 11.0 82 26 20   102.00     LegendNANA
11:00 14.4 11.4 82 26 20   101.94     LegendNANA
12:00 15.9 11.4 75 27 21   101.86     LegendNANA
13:00 16.6 11.0 69 26 18   101.75     LegendNANA
14:00 16.7 11.5 71 25 19   101.66     LegendNANA
15:00 17.2 11.4 69 25 14   101.58     LegendNANA
16:00 17.2 11.0 67 26 17   101.54     LegendNANA
17:00 16.1 11.0 72 27 15   101.44     LegendNANA
18:00 14.6 11.4 81 27 10   101.37     LegendNANA
19:00 14.3 11.2 82 27 6   101.31     LegendNANA
20:00 14.2 11.3 83 23 2   101.27     LegendNANA
21:00 13.9 11.5 85 25 5   101.21     LegendNANA
22:00 13.5 11.4 87 23 3   101.16     LegendNANA
23:00 13.2 11.0 87 24 3   101.08     LegendNANA

Notes on Data Quality.

Legend

  • E = Estimated
  • M = Missing
  • NA = Not Available
  • ‡ = Partner data that is not subject to review by the National Climate Archives
Date modified: